Kuchera_Ratio
0.0 0.0 0.0 0.0 0.0 0.0 0.0 0.0 0.0 0.0 0.0 0.0 0.0 0.0 0.0 0.0 0.0 0.0 0.0 0.0 0.0 0.0 0.0 0.0 0.0 0.0 0.0 0.0 0.0 0.0 0.0 0.0 0.0 0.0 0.0 0.0 0.7 0.0 0.0 0.0 0.0 0.0 1.3 5.3 1.3 6.9 8.1 0.0 0.0 0.0 0.0 0.0 0.0 0.0
0.0 0.0 0.0 0.0 0.0 0.0 0.0 0.0 0.0 0.0 0.0 0.0 0.0 0.0 0.0 0.0 0.0 0.0 0.0 0.0 0.0 0.0 0.0 0.0 0.0 0.0 0.0 0.0 0.0 0.0 0.0 0.0 0.0 0.0 0.0 0.0 0.1 0.4 0.0 0.0 0.0 0.0 0.0 0.0 0.0 0.0 0.0 0.0 0.0 0.0 0.0 0.0 0.0 0.0
0.0 0.0 0.0 0.0 0.0 0.0 0.0 0.0 0.0 0.0 0.0 0.0 0.0 0.0 0.0 0.0 0.0 0.0 0.0 0.0 0.0 0.0 0.0 0.0 0.0 0.0 0.0 0.0 0.0 0.0 0.0 0.0 0.0 0.0 0.0 0.0 1.2 0.0 2.6 0.0 0.0 0.0 0.0 0.0 0.0 0.0 0.0 0.0 0.0 0.0 0.0 0.0 0.0 0.0
0.0 0.0 0.0 0.0 0.0 0.0 0.0 0.0 0.0 0.0 0.0 0.0 0.0 0.0 0.0 0.0 0.0 0.0 0.0 0.0 0.0 0.0 0.0 0.0 0.0 0.0 0.0 0.0 0.0 0.0 0.0 0.0 0.0 0.0 0.0 0.0 0.0 0.0 0.0 0.0 0.0 0.0 0.0 0.0 0.0 0.0 0.0 0.0 0.0 0.0 0.0 0.0 0.0 0.0
0.0 0.0 0.0 0.0 0.0 0.0 0.0 0.0 0.0 0.0 0.0 0.0 0.0 0.0 0.0 0.0 0.0 0.0 0.0 0.0 0.0 0.0 0.0 0.0 0.0 0.0 0.0 0.0 0.0 0.0 0.0 0.0 0.0 0.0 0.0 0.0 0.0 0.0 0.0 0.0 0.0 0.0 0.0 0.0 0.0 0.0 0.0 0.0 0.0 0.0 0.0 0.0 0.0 0.0
0.0 0.0 0.0 0.0 0.0 0.0 0.0 0.0 0.0 0.0 0.0 0.0 0.0 0.0 0.0 0.0 0.0 0.0 0.0 0.0 0.0 0.0 0.0 0.0 0.0 0.0 0.0 0.0 0.0 0.0 0.0 0.0 0.0 0.0 0.0 0.0 0.0 0.0 2.7 0.0 0.0 0.0 0.0 0.0 0.0 0.0 0.0 0.0 0.0 0.0 0.0 0.0 0.0 0.0
0.0 0.0 0.0 0.0 0.0 0.0 0.0 0.0 0.0 0.0 0.0 0.0 0.0 0.0 0.0 0.0 0.0 0.0 0.0 0.0 0.0 0.0 0.0 0.0 0.0 0.0 0.0 0.0 0.0 0.0 0.0 0.0 0.0 0.0 0.0 0.0 0.0 0.0 0.0 0.0 0.0 0.0 0.0 0.0 0.0 0.0 0.0 0.0 0.0 0.0 0.0 0.0 0.0 0.0
0.0 0.0 0.0 0.0 0.0 0.0 0.0 0.0 0.0 0.0 0.0 0.0 0.0 0.0 0.0 0.0 0.0 0.0 0.0 0.0 0.0 0.0 0.0 0.0 0.0 0.0 0.0 0.0 0.0 0.0 0.0 0.0 0.0 0.0 0.0 0.0 0.0 0.0 0.3 0.0 0.0 0.0 0.0 0.0 0.0 0.0 0.0 0.0 0.0 0.0 0.0 0.0 0.0 0.0
0.0 0.0 0.0 0.0 0.0 0.0 0.0 0.0 0.0 0.0 0.0 0.0 0.0 0.0 0.0 0.0 0.0 0.0 0.0 0.0 0.0 0.0 0.0 0.0 0.0 2.1 0.0 0.0 0.0 0.0 0.0 0.0 0.0 0.0 0.0 0.0 0.0 1.3 0.0 0.0 0.0 0.0 0.0 0.0 0.0 0.0 0.0 0.0 0.0 0.0 0.0 0.0 0.0 0.0
0.0 0.0 0.0 0.0 0.0 0.0 0.0 0.0 0.0 0.0 0.0 0.0 0.0 0.0 0.0 0.0 0.0 0.0 0.0 0.0 0.0 0.0 0.0 0.0 0.0 0.0 0.0 0.0 1.1 0.0 0.0 0.9 4.1 0.9 0.0 5.7 3.5 0.0 0.0 0.0 0.0 0.0 0.0 0.0 0.0 0.0 0.0 0.0 0.0 0.0 0.0 0.0 0.0 0.0
0.0 0.0 0.0 0.0 0.0 0.0 0.0 0.0 0.0 0.0 0.0 0.0 0.0 0.0 0.0 0.0 0.0 0.0 0.0 0.0 0.0 1.8 0.0 0.0 0.0 0.0 0.0 0.0 2.9 0.3 4.3 4.1 5.7 2.9 3.7 3.9 2.1 0.0 0.0 0.0 0.0 0.0 0.0 0.0 0.0 0.0 0.0 0.0 0.0 0.0 0.0 0.0 0.0 0.0
0.0 0.0 0.0 0.0 0.0 0.0 0.0 0.0 0.0 0.0 0.0 0.0 0.0 0.0 0.0 0.0 1.4 0.0 5.5 5.7 4.7 3.1 2.5 4.5 1.1 0.0 0.3 0.0 4.2 6.3 6.9 6.1 7.3 0.0 5.7 6.1 0.0 0.0 0.0 0.0 0.0 0.0 0.0 0.0 0.0 0.0 0.0 0.0 0.0 0.0 0.0 0.0 0.0 0.0
0.0 0.0 0.0 0.0 0.0 0.0 0.0 0.0 0.0 0.0 0.0 0.0 0.7 4.7 4.7 7.3 8.7 8.1 9.7 7.3 7.3 5.9 5.3 5.3 6.7 4.7 3.9 1.4 6.7 5.7 7.9 7.1 0.0 7.5 5.1 0.0 0.0 0.0 0.0 0.0 0.0 0.0 0.0 0.0 0.0 0.0 0.0 0.0 0.0 0.0 0.0 0.0 2.4 0.0
0.0 0.0 0.0 0.0 0.0 0.0 0.0 0.0 0.0 0.0 0.0 3.9 7.1 8.1 7.3 7.9 6.9 5.5 4.5 5.1 4.1 3.7 4.9 5.3 6.7 5.9 6.1 6.1 5.7 7.7 7.3 3.7 10.3 11.7 7.5 0.0 0.0 0.0 0.0 0.0 0.0 0.0 0.0 0.0 0.0 0.0 0.0 0.0 0.1 2.0 2.8 2.7 4.4 4.3
0.0 0.0 0.0 0.0 0.0 0.0 0.0 0.0 0.0 0.0 0.0 4.1 4.1 8.9 7.7 6.3 5.5 6.1 4.9 4.1 3.3 0.7 2.1 2.1 2.7 0.0 5.5 7.9 5.9 8.3 12.0 11.9 7.3 4.9 0.0 0.0 0.0 0.0 0.0 0.0 0.0 0.0 0.7 0.1 0.0 0.0 0.0 1.3 3.1 1.3 0.3 0.9 0.7 4.7
0.0 0.0 0.0 0.0 0.0 0.0 0.0 0.0 0.0 0.0 0.0 0.3 4.9 7.5 6.3 6.1 7.1 7.3 6.3 6.7 0.7 1.9 0.9 0.0 5.3 6.9 8.5 6.7 10.7 10.5 10.3 10.1 4.1 0.1 0.0 0.0 0.0 0.0 0.0 0.0 0.0 0.0 0.0 0.0 0.0 0.0 0.0 2.0 4.0 0.0 0.0 2.7 5.3 6.1
0.0 0.0 0.0 0.0 0.0 0.0 0.0 0.0 0.0 0.0 3.9 5.5 7.3 3.7 4.9 4.5 5.5 5.9 3.5 3.1 0.0 2.9 6.7 4.7 9.1 9.7 7.7 9.5 10.5 2.5 7.5 2.7 0.0 0.0 0.0 0.0 0.0 0.0 0.0 0.0 0.0 0.0 0.0 0.0 0.0 0.0 0.0 0.0 0.9 3.3 5.1 0.0 0.0 0.0
0.0 0.0 0.0 0.0 0.0 0.0 0.0 0.0 0.1 0.0 6.5 0.9 4.3 6.5 4.5 3.7 4.9 4.7 3.1 1.9 2.5 3.3 2.1 4.7 2.3 9.7 10.1 10.9 6.9 0.9 0.0 0.0 0.0 0.0 0.0 0.0 0.0 0.0 0.0 0.0 0.0 0.0 0.0 0.0 0.0 0.0 0.0 2.7 1.7 0.0 0.0 0.0 0.0 0.0
0.0 0.0 0.0 0.0 0.0 0.0 2.1 2.3 0.0 5.5 3.5 1.5 3.7 1.9 2.9 5.3 4.1 2.7 3.7 4.1 0.7 0.0 1.7 3.3 8.1 7.1 6.3 2.5 2.1 1.5 0.0 0.0 0.0 0.0 0.0 0.0 0.0 0.0 0.0 0.0 0.0 0.0 0.0 0.0 0.0 0.0 0.0 0.0 0.0 0.0 0.0 0.0 0.0 0.0
0.0 0.0 0.0 0.0 0.0 0.0 3.9 2.7 0.0 0.0 2.1 1.9 2.9 3.1 3.9 4.7 5.7 5.9 5.1 4.1 2.1 1.5 5.3 6.3 3.7 0.7 0.0 0.0 0.0 0.0 0.0 0.0 0.0 0.0 0.0 0.0 0.0 0.0 0.0 0.0 0.0 0.0 0.0 0.0 0.0 0.0 0.0 0.0 0.0 0.0 0.0 0.0 1.9 3.5
0.0 0.0 0.0 0.0 0.0 0.0 0.0 0.0 1.7 0.0 0.9 2.9 3.7 0.0 7.5 5.9 7.5 7.7 6.9 1.5 5.3 3.9 3.1 0.0 0.0 0.0 0.0 0.0 0.0 0.0 0.0 0.0 0.0 0.0 0.0 0.0 0.0 0.0 0.0 0.0 0.0 0.0 0.0 0.0 0.0 0.0 0.7 0.0 0.0 0.0 3.3 5.3 5.1 4.5
0.0 0.0 3.7 1.5 3.9 4.7 1.9 0.0 0.5 0.0 0.5 4.9 4.3 0.0 8.1 10.3 10.1 8.7 4.9 7.5 5.5 0.0 0.0 0.0 0.0 0.0 0.0 0.0 0.0 0.0 0.0 0.0 0.0 0.0 0.2 0.0 0.0 0.0 0.0 0.0 0.0 0.0 0.0 0.1 0.0 1.5 0.7 0.0 0.0 0.1 4.1 6.9 5.3 4.5
0.0 1.7 5.9 6.1 8.1 7.3 10.9 0.0 6.7 3.9 9.3 9.3 5.1 9.1 9.7 9.3 7.3 3.3 9.9 3.1 0.7 0.0 0.0 0.0 0.0 0.0 0.0 0.0 0.0 0.0 0.0 0.0 0.0 0.0 0.0 0.0 0.0 0.0 0.0 0.0 0.0 1.7 2.5 0.0 0.0 0.0 0.3 1.7 2.1 5.7 6.3 5.9 5.9 6.7
0.3 7.3 9.3 9.9 7.9 12.5 8.1 10.9 4.5 6.3 6.7 8.5 9.1 12.3 11.1 7.9 8.3 10.5 11.3 5.3 0.0 0.0 0.0 0.0 0.0 0.0 0.0 0.0 0.0 0.0 0.0 0.0 0.0 0.0 0.0 0.0 0.0 0.0 0.0 0.0 0.0 0.0 0.0 0.0 0.0 2.3 3.1 6.1 6.7 5.9 6.7 7.5 7.5 8.1
9.1 12.3 10.3 13.3 9.5 11.9 12.3 12.5 12.0 10.1 12.4 12.0 12.9 12.5 12.3 9.3 12.3 12.5 12.6 3.1 1.1 2.5 1.3 0.0 0.0 0.0 0.0 0.0 0.0 0.0 0.0 0.0 0.0 0.0 0.0 0.0 0.0 0.0 0.0 0.0 0.0 0.0 0.0 3.7 6.4 7.1 7.5 6.9 7.1 7.7 7.5 8.1 8.9 9.1
13.3 12.2 11.7 11.9 12.4 11.5 10.9 13.5 12.9 12.4 11.9 13.1 12.8 10.7 11.7 11.9 13.5 13.0 5.7 4.5 5.5 5.3 8.7 7.7 5.1 1.1 0.0 0.0 0.0 0.0 0.0 0.0 0.0 2.7 0.0 0.0 0.0 3.3 5.1 6.7 5.9 2.7 0.0 3.7 6.5 7.7 7.9 7.3 8.1 9.1 9.3 9.1 9.3 9.5
13.2 13.0 9.3 5.1 5.7 8.5 12.2 11.7 8.7 11.1 13.4 13.6 11.9 13.3 12.9 14.7 13.5 6.3 3.3 7.1 5.1 8.1 4.9 4.3 5.7 5.1 5.9 4.7 3.7 5.1 6.5 7.5 9.1 9.5 7.5 6.1 5.5 5.7 7.9 9.1 9.1 7.3 6.7 7.1 7.7 8.1 8.9 9.1 9.7 9.7 9.5 9.3 9.3 9.3
9.7 8.5 13.4 12.2 10.1 6.3 12.5 11.9 12.8 12.8 11.3 5.5 8.1 13.8 13.9 12.6 10.3 10.7 11.1 10.5 10.7 8.1 6.5 6.5 7.1 9.1 9.3 10.1 10.1 11.1 11.9 11.3 10.1 7.5 5.3 3.3 5.7 12.2 12.3 11.7 10.3 11.9 10.3 9.7 10.1 9.9 9.9 9.9 10.1 10.1 10.7 10.9 10.3 10.1
10.7 7.7 9.1 14.1 12.8 12.0 11.3 10.9 9.9 4.3 0.5 5.5 10.5 10.1 8.5 12.0 13.9 13.4 13.4 12.8 11.5 12.0 12.9 13.4 13.1 12.5 11.7 11.1 11.1 12.3 13.6 14.3 15.5 16.6 16.2 15.1 14.3 13.5 13.1 13.4 13.4 13.0 13.0 12.8 12.3 11.9 11.7 11.5 12.2 12.4 12.3 11.9 12.0 12.1
12.5 7.1 11.5 13.3 14.0 12.8 9.1 4.9 7.7 8.1 2.1 2.9 3.1 5.7 11.1 14.9 15.9 14.2 14.4 14.4 15.3 16.0 15.4 14.9 14.8 14.8 15.5 15.9 15.6 14.6 14.3 15.2 16.5 17.7 18.6 18.2 17.3 15.5 14.9 15.2 15.3 14.9 14.8 14.2 13.8 13.0 12.3 12.2 12.5 12.3 13.5 13.9 14.8 14.7
8.9 10.1 12.1 11.5 12.0 8.9 9.9 11.1 10.5 10.7 10.3 8.5 6.7 9.5 13.3 16.6 16.9 16.6 16.5 15.9 15.8 16.1 16.4 16.8 16.1 16.1 16.8 17.2 17.5 17.8 17.8 15.7 16.9 17.2 17.8 17.8 17.1 17.0 17.0 17.3 16.6 16.5 16.1 15.6 15.2 15.0 15.4 14.8 14.7 15.2 15.9 17.2 17.8 18.0
11.1 12.1 12.3 13.5 12.0 11.3 11.3 12.1 11.1 11.7 9.3 11.5 10.5 12.6 14.7 15.1 17.9 18.2 17.8 16.8 17.0 18.1 18.8 18.1 18.4 18.2 17.1 16.5 16.7 16.7 18.0 17.4 17.5 18.2 18.6 19.7 19.3 19.0 19.1 18.5 17.9 17.9 17.8 17.5 16.6 16.7 17.3 17.1 17.5 17.6 17.7 19.4 20.4 20.7
13.1 13.0 13.1 13.4 13.0 13.3 12.4 13.0 11.7 12.8 12.6 12.9 14.0 14.5 16.6 16.7 20.4 18.8 16.3 16.8 18.3 19.2 19.5 19.0 18.3 17.8 17.3 16.9 17.2 17.5 17.7 17.5 17.9 18.3 19.1 20.2 20.9 20.8 21.0 20.2 21.0 21.1 19.9 18.6 18.3 18.6 19.3 19.6 19.8 20.4 21.3 22.2 23.0 23.7